Falfurrias, TX

11:39 AM CST on November 15, 2019 (GMT -0600)
Falfurrias

Weather History for KBKS - September, 2019

Change the Weather History Date:

Monday, September 30, 2019

  Actual Average (WUND) Record (WUND)
Temperature  
Mean Temperature 87 °F -  
Max Temperature 95 °F - - (-1)
Min Temperature 79 °F - - (-1)
Cooling Degree Days 22    
Growing Degree Days 37 (Base 50)    
Moisture  
Dew Point 77 °F    
Average Humidity 76    
Maximum Humidity 92    
Minimum Humidity 48    
Precipitation  
Precipitation 0.00 in - - ()
Sea Level Pressure  
Sea Level Pressure 29.92 in    
Wind  
Wind Speed 6 mph ()    
Max Wind Speed 17 mph    
Max Gust Speed 23 mph    
Visibility 8.3 miles    
Events      
Averages and records for this station are not official NWS values.
T = Trace of Precipitation, MM = Missing Value Source: Averaged Metar Reports

Daily Weather History Graph

Daily Weather History Graph

Search for Another Location

Airport or City:

Astronomy

Sep. 30, 2019 Rise Set
Actual Time 7:24 AM CDT 7:19 PM CDT
Civil Twilight 7:01 AM CDT 7:43 PM CDT
Nautical Twilight 6:34 AM CDT 8:10 PM CDT
Astronomical Twilight 6:07 AM CDT 8:37 PM CDT
Moon 9:22 AM CDT (9/30) 9:07 PM CDT (9/30)
Length of Visible Light 12h 41m
Length of Day
11h 55m
Waxing Crescent, 6% of the Moon is Illuminated
Sep 30
Waxing Crescent
Oct 5
First Quarter
Oct 13
Full
Oct 21
Last Quarter
Oct 27
New

Hourly Weather History & Observations

Time (CDT) Temp. Heat Index Dew Point Humidity Pressure Visibility Wind Dir Wind Speed Gust Speed Precip Events Conditions
12:15 AM 81.5 °F 90.0 °F 78.3 °F 90% 29.94 in 10.0 mi SE 5.8 mph - N/A   Scattered Clouds
12:35 AM 81.5 °F 90.0 °F 78.3 °F 90% 29.95 in 10.0 mi SE 4.6 mph - N/A   Scattered Clouds
12:55 AM 81.5 °F 90.0 °F 78.3 °F 90% 29.95 in 7.0 mi ESE 3.5 mph - N/A   Clear
1:15 AM 81.1 °F 89.1 °F 78.3 °F 91% 29.95 in 7.0 mi Calm Calm - N/A   Scattered Clouds
1:35 AM 81.0 °F 88.6 °F 78.3 °F 91% 29.95 in 7.0 mi Calm Calm - N/A   Mostly Cloudy
2:15 AM 81.0 °F 88.6 °F 78.3 °F 91% 29.94 in 5.0 mi Calm Calm - N/A   Mostly Cloudy
2:35 AM 81.0 °F 88.6 °F 78.3 °F 91% 29.94 in 5.0 mi Calm Calm - N/A   Mostly Cloudy
2:55 AM 81.0 °F 88.8 °F 78.4 °F 92% 29.93 in 5.0 mi Calm Calm - N/A   Mostly Cloudy
3:15 AM 81.1 °F 89.1 °F 78.4 °F 91% 29.93 in 5.0 mi Calm Calm - N/A   Mostly Cloudy
3:35 AM 80.8 °F 88.2 °F 78.3 °F 92% 29.93 in 4.0 mi ENE 3.5 mph - N/A   Scattered Clouds
3:55 AM 80.8 °F 88.2 °F 78.3 °F 92% 29.93 in 3.0 mi Calm Calm - N/A   Unknown
4:15 AM 80.8 °F 88.2 °F 78.3 °F 92% 29.93 in 4.0 mi ESE 3.5 mph - N/A   Scattered Clouds
4:35 AM 80.6 °F 87.5 °F 77.9 °F 91% 29.93 in 4.0 mi Calm Calm - N/A   Scattered Clouds
4:55 AM 80.8 °F 88.2 °F 78.3 °F 92% 29.92 in 5.0 mi ESE 5.8 mph - N/A   Scattered Clouds
5:15 AM 81.0 °F 88.8 °F 78.4 °F 92% 29.93 in 5.0 mi East 4.6 mph - N/A   Scattered Clouds
5:35 AM 80.8 °F 88.0 °F 78.1 °F 91% 29.93 in 4.0 mi Calm Calm - N/A   Scattered Clouds
5:55 AM 80.6 °F 87.5 °F 77.9 °F 91% 29.93 in 4.0 mi Calm Calm - N/A   Clear
6:15 AM 80.1 °F 86.1 °F 77.5 °F 92% 29.94 in 3.0 mi Calm Calm - N/A   Unknown
6:35 AM 80.1 °F 86.1 °F 77.5 °F 92% 29.94 in 4.0 mi East 3.5 mph - N/A   Mostly Cloudy
6:55 AM 80.1 °F 86.1 °F 77.5 °F 92% 29.94 in 4.0 mi East 3.5 mph - N/A   Overcast
7:15 AM 80.1 °F 86.1 °F 77.5 °F 92% 29.95 in 5.0 mi SE 6.9 mph - N/A   Mostly Cloudy
7:35 AM 79.9 °F - 77.0 °F 91% 29.95 in 7.0 mi ESE 4.6 mph - N/A   Overcast
7:55 AM 80.1 °F 85.8 °F 77.0 °F 90% 29.96 in 7.0 mi ESE 3.5 mph - N/A   Overcast
8:15 AM 80.2 °F 86.0 °F 76.5 °F 88% 29.96 in 7.0 mi SE 3.5 mph - N/A   Scattered Clouds
8:35 AM 80.8 °F 87.4 °F 77.0 °F 88% 29.97 in 7.0 mi ESE 3.5 mph - N/A   Scattered Clouds
8:55 AM 82.2 °F 90.4 °F 77.0 °F 84% 29.97 in 10.0 mi ESE 3.5 mph - N/A   Scattered Clouds
9:15 AM 83.8 °F 94.3 °F 77.9 °F 82% 29.97 in 10.0 mi SE 5.8 mph - N/A   Clear
9:35 AM 85.3 °F 98.1 °F 79.0 °F 81% 29.97 in 7.0 mi SE 5.8 mph - N/A   Clear
9:55 AM 86.4 °F 100.4 °F 79.0 °F 79% 29.98 in 7.0 mi ESE 10.4 mph - N/A   Clear
10:15 AM 87.1 °F 101.5 °F 79.0 °F 77% 29.98 in 10.0 mi SE 8.1 mph - N/A   Scattered Clouds
10:35 AM 88.0 °F 103.1 °F 79.3 °F 75% 29.98 in 10.0 mi SE 10.4 mph - N/A   Mostly Cloudy
10:55 AM 88.5 °F 104.1 °F 79.2 °F 74% 29.97 in 10.0 mi SE 15.0 mph 18.4 mph N/A   Mostly Cloudy
11:15 AM 88.9 °F 103.3 °F 78.4 °F 71% 29.97 in 10.0 mi SE 11.5 mph 16.1 mph N/A   Mostly Cloudy
11:35 AM 90.7 °F 105.2 °F 78.1 °F 66% 29.97 in 10.0 mi SE 13.8 mph 17.3 mph N/A   Mostly Cloudy
11:55 AM 91.8 °F 104.7 °F 76.6 °F 61% 29.96 in 10.0 mi SE 11.5 mph 16.1 mph N/A   Scattered Clouds
12:15 PM 92.3 °F 105.5 °F 76.8 °F 60% 29.96 in 10.0 mi SSE 12.7 mph - N/A   Scattered Clouds
12:35 PM 92.3 °F 102.8 °F 74.5 °F 56% 29.96 in 10.0 mi ESE 12.7 mph 18.4 mph N/A   Scattered Clouds
12:55 PM 91.4 °F 102.5 °F 75.2 °F 59% 29.95 in 10.0 mi SSE 15.0 mph - N/A   Mostly Cloudy
1:15 PM 93.2 °F 102.4 °F 73.4 °F 52% 29.94 in 10.0 mi SE 17.3 mph 20.7 mph N/A   Scattered Clouds
1:35 PM 93.7 °F 104.3 °F 74.3 °F 53% 29.93 in 10.0 mi SE 13.8 mph - N/A   Scattered Clouds
1:55 PM 93.6 °F 104.5 °F 74.7 °F 54% 29.92 in 10.0 mi ESE 9.2 mph 19.6 mph N/A   Scattered Clouds
2:15 PM 93.6 °F 105.9 °F 75.7 °F 56% 29.91 in 10.0 mi ESE 10.4 mph - N/A   Scattered Clouds
2:35 PM 94.6 °F 106.5 °F 75.2 °F 53% 29.90 in 10.0 mi SE 11.5 mph 17.3 mph N/A   Scattered Clouds
2:55 PM 94.6 °F 105.8 °F 74.3 °F 52% 29.89 in 10.0 mi SE 12.7 mph 17.3 mph N/A   Mostly Cloudy
3:15 PM 95.2 °F 104.2 °F 72.7 °F 48% 29.88 in 10.0 mi ESE 12.7 mph 21.9 mph N/A   Scattered Clouds
3:35 PM 95.0 °F 104.5 °F 73.2 °F 49% 29.87 in 10.0 mi ESE 15.0 mph 23.0 mph N/A   Scattered Clouds
3:55 PM 95.4 °F 104.7 °F 72.7 °F 48% 29.87 in 10.0 mi SE 12.7 mph 20.7 mph N/A   Scattered Clouds
4:15 PM 95.2 °F 105.6 °F 74.1 °F 50% 29.87 in 10.0 mi East 15.0 mph 20.7 mph N/A   Clear
4:35 PM 94.8 °F 107.7 °F 75.9 °F 54% 29.87 in 10.0 mi East 13.8 mph 19.6 mph N/A   Scattered Clouds
4:55 PM 94.6 °F 104.4 °F 73.2 °F 50% 29.86 in 10.0 mi SE 12.7 mph 18.4 mph N/A   Scattered Clouds
5:15 PM 93.7 °F 105.0 °F 74.8 °F 54% 29.85 in 10.0 mi ESE 12.7 mph 23.0 mph N/A   Scattered Clouds
5:35 PM 93.2 °F 105.7 °F 75.7 °F 57% 29.85 in 10.0 mi SE 15.0 mph - N/A   Clear
5:55 PM 91.9 °F 104.5 °F 76.3 °F 60% 29.86 in 10.0 mi ESE 17.3 mph 21.9 mph N/A   Clear
6:15 PM 90.9 °F 103.0 °F 76.3 °F 62% 29.86 in 10.0 mi ESE 16.1 mph 20.7 mph N/A   Clear
6:55 PM 88.9 °F 99.7 °F 75.9 °F 65% 29.86 in 10.0 mi East 9.2 mph 18.4 mph N/A   Clear
7:15 PM 87.6 °F 98.7 °F 76.5 °F 69% 29.86 in 10.0 mi East 10.4 mph - N/A   Clear
7:35 PM 86.5 °F 97.4 °F 76.6 °F 72% 29.86 in 10.0 mi ESE 4.6 mph - N/A   Clear
7:55 PM 86.0 °F 96.9 °F 77.0 °F 74% 29.87 in 10.0 mi ESE 11.5 mph 16.1 mph N/A   Clear
8:15 PM 85.3 °F 96.3 °F 77.4 °F 77% 29.88 in 10.0 mi ESE 6.9 mph - N/A   Clear
8:35 PM 84.7 °F 96.1 °F 77.9 °F 80% 29.88 in 10.0 mi ESE 6.9 mph - N/A   Clear
8:55 PM 84.4 °F 95.4 °F 77.9 °F 81% 29.89 in 10.0 mi East 6.9 mph - N/A   Clear
9:15 PM 84.2 °F 95.3 °F 78.1 °F 82% 29.90 in 10.0 mi ESE 9.2 mph - N/A   Clear
9:55 PM 83.7 °F 94.5 °F 78.3 °F 84% 29.91 in 10.0 mi ESE 6.9 mph - N/A   Scattered Clouds
10:15 PM 83.5 °F 94.0 °F 78.3 °F 84% 29.91 in 10.0 mi ESE 6.9 mph - N/A   Clear
10:35 PM 83.3 °F 93.8 °F 78.3 °F 85% 29.91 in 10.0 mi ESE 5.8 mph - N/A   Clear
10:55 PM 83.1 °F 93.3 °F 78.1 °F 85% 29.91 in 10.0 mi East 5.8 mph - N/A   Clear
11:15 PM 82.8 °F 92.6 °F 78.1 °F 86% 29.92 in 10.0 mi East 4.6 mph - N/A   Clear
11:35 PM 82.4 °F 91.8 °F 78.1 °F 87% 29.92 in 10.0 mi ESE 3.5 mph - N/A   Clear
11:55 PM 82.2 °F 91.3 °F 77.9 °F 87% 29.92 in 10.0 mi ESE 3.5 mph - N/A   Clear